When you browse on this site, cookies collect data to enhance your experience and personalize the content and advertising you see.
Visit our Privacy Policy to learn more. By continuing to use the site, you agree to this use of cookies and data.
  • In Spain
  • List of Countries
  • For 7 days
  • Water Temperature
  • Weather Map
  • Weather Widgets
  • user-avatar
    Login

    Hourly Weather Praia

    Today, 28 January, Tuesday

    Time Temperature Precipitation Wind Pressure Humidity
    00:00 +14°C° 0 mm 5 mps 683 mmHg 16%
    01:00 +13°C° 0 mm 5 mps 683 mmHg 17%
    02:00 +12°C° 0 mm 5 mps 683 mmHg 18%
    03:00 +12°C° 0 mm 5 mps 683 mmHg 19%
    04:00 +11°C° 0 mm 4 mps 682 mmHg 20%
    05:00 +11°C° 0 mm 4 mps 682 mmHg 21%
    06:00 +10°C° 0 mm 5 mps 683 mmHg 22%
    07:00 +12°C° 0 mm 5 mps 683 mmHg 22%
    08:00 +12°C° 0 mm 5 mps 683 mmHg 22%
    09:00 +15°C° 0 mm 6 mps 684 mmHg 19%
    10:00 +19°C° 0 mm 6 mps 685 mmHg 16%
    11:00 +22°C° 0 mm 7 mps 685 mmHg 12%
    12:00 +24°C° 0 mm 6 mps 685 mmHg 11%
    13:00 +27°C° 0 mm 6 mps 685 mmHg 9%
    14:00 +28°C° 0 mm 5 mps 684 mmHg 8%
    15:00 +28°C° 0 mm 5 mps 684 mmHg 7%
    16:00 +28°C° 0 mm 5 mps 684 mmHg 7%
    17:00 +28°C° 0 mm 5 mps 683 mmHg 7%
    18:00 +25°C° 0 mm 5 mps 683 mmHg 8%
    19:00 +22°C° 0 mm 6 mps 683 mmHg 10%
    20:00 +19°C° 0 mm 6 mps 683 mmHg 12%
    21:00 +17°C° 0 mm 6 mps 684 mmHg 13%
    22:00 +16°C° 0 mm 6 mps 684 mmHg 14%
    23:00 +15°C° 0 mm 6 mps 684 mmHg 16%

    Tomorrow, 29 January, Wednesday

    Time Temperature Precipitation Wind Pressure Humidity
    00:00 +14°C° 0 mm 5 mps 684 mmHg 17%
    01:00 +13°C° 0 mm 5 mps 683 mmHg 18%
    02:00 +12°C° 0 mm 5 mps 683 mmHg 19%
    03:00 +12°C° 0 mm 5 mps 683 mmHg 19%
    04:00 +10°C° 0 mm 5 mps 682 mmHg 20%
    05:00 +11°C° 0 mm 4 mps 682 mmHg 21%
    06:00 +10°C° 0 mm 5 mps 683 mmHg 20%
    07:00 +10°C° 0 mm 5 mps 684 mmHg 20%
    08:00 +12°C° 0 mm 5 mps 684 mmHg 20%
    09:00 +15°C° 0 mm 6 mps 685 mmHg 16%
    10:00 +20°C° 0 mm 7 mps 686 mmHg 13%
    11:00 +23°C° 0 mm 8 mps 686 mmHg 9%
    12:00 +24°C° 0 mm 7 mps 686 mmHg 8%
    13:00 +27°C° 0 mm 7 mps 685 mmHg 6%
    14:00 +28°C° 0 mm 7 mps 685 mmHg 5%
    15:00 +28°C° 0 mm 7 mps 685 mmHg 5%
    16:00 +28°C° 0 mm 7 mps 684 mmHg 5%
    17:00 +28°C° 0 mm 7 mps 684 mmHg 5%
    18:00 +24°C° 0 mm 7 mps 684 mmHg 6%
    19:00 +21°C° 0 mm 7 mps 684 mmHg 7%
    20:00 +19°C° 0 mm 6 mps 685 mmHg 8%
    21:00 +17°C° 0 mm 6 mps 685 mmHg 9%
    22:00 +16°C° 0 mm 6 mps 685 mmHg 9%
    23:00 +15°C° 0 mm 6 mps 685 mmHg 10%

    Day after tomorrow, 30 January, Thursday

    Time Temperature Precipitation Wind Pressure Humidity
    00:00 +14°C° 0 mm 6 mps 685 mmHg 11%
    01:00 +14°C° 0 mm 6 mps 684 mmHg 12%
    02:00 +13°C° 0 mm 5 mps 684 mmHg 12%
    03:00 +12°C° 0 mm 5 mps 684 mmHg 13%
    04:00 +12°C° 0 mm 5 mps 683 mmHg 14%
    05:00 +10°C° 0 mm 5 mps 683 mmHg 15%
    06:00 +12°C° 0 mm 5 mps 684 mmHg 15%
    07:00 +11°C° 0 mm 6 mps 684 mmHg 16%
    08:00 +11°C° 0 mm 6 mps 685 mmHg 16%
    09:00 +15°C° 0 mm 7 mps 685 mmHg 15%
    10:00 +18°C° 0 mm 7 mps 686 mmHg 13%
    11:00 +22°C° 0 mm 8 mps 686 mmHg 12%
    12:00 +23°C° 0 mm 7 mps 686 mmHg 10%
    13:00 +26°C° 0 mm 7 mps 685 mmHg 9%
    14:00 +28°C° 0 mm 7 mps 684 mmHg 7%
    15:00 +28°C° 0 mm 6 mps 684 mmHg 7%
    16:00 +28°C° 0 mm 6 mps 684 mmHg 7%
    17:00 +28°C° 0 mm 6 mps 684 mmHg 7%
    18:00 +24°C° 0 mm 6 mps 684 mmHg 9%
    19:00 +22°C° 0 mm 6 mps 684 mmHg 11%
    20:00 +19°C° 0 mm 6 mps 684 mmHg 13%
    21:00 +17°C° 0 mm 6 mps 684 mmHg 15%
    22:00 +16°C° 0 mm 6 mps 684 mmHg 17%
    23:00 +15°C° 0 mm 6 mps 684 mmHg 19%

    31 January, Friday

    Time Temperature Precipitation Wind Pressure Humidity
    00:00 +15°C° 0 mm 6 mps 684 mmHg 20%
    01:00 +14°C° 0 mm 5 mps 684 mmHg 21%
    02:00 +13°C° 0 mm 5 mps 683 mmHg 22%
    03:00 +12°C° 0 mm 5 mps 683 mmHg 22%
    04:00 +12°C° 0 mm 5 mps 683 mmHg 23%
    05:00 +10°C° 0 mm 5 mps 683 mmHg 23%
    06:00 +12°C° 0 mm 5 mps 683 mmHg 23%
    07:00 +12°C° 0 mm 5 mps 684 mmHg 23%
    08:00 +12°C° 0 mm 5 mps 684 mmHg 23%
    09:00 +15°C° 0 mm 6 mps 685 mmHg 20%
    10:00 +18°C° 0 mm 7 mps 685 mmHg 16%
    11:00 +22°C° 0 mm 8 mps 686 mmHg 13%
    12:00 +24°C° 0 mm 7 mps 685 mmHg 12%
    13:00 +26°C° 0 mm 7 mps 685 mmHg 10%
    14:00 +28°C° 0 mm 7 mps 684 mmHg 9%
    15:00 +28°C° 0 mm 6 mps 684 mmHg 9%
    16:00 +28°C° 0 mm 6 mps 684 mmHg 9%
    17:00 +27°C° 0 mm 6 mps 683 mmHg 9%
    18:00 +24°C° 0 mm 6 mps 683 mmHg 11%
    19:00 +21°C° 0 mm 6 mps 683 mmHg 13%
    20:00 +17°C° 0 mm 6 mps 683 mmHg 15%
    21:00 +16°C° 0 mm 6 mps 684 mmHg 15%
    22:00 +15°C° 0 mm 5 mps 684 mmHg 16%
    23:00 +14°C° 0 mm 5 mps 684 mmHg 17%

    1 February, Saturday

    Time Temperature Precipitation Wind Pressure Humidity
    00:00 +14°C° 0 mm 5 mps 684 mmHg 18%
    01:00 +13°C° 0 mm 5 mps 683 mmHg 18%
    02:00 +12°C° 0 mm 5 mps 683 mmHg 19%
    03:00 +12°C° 0 mm 5 mps 683 mmHg 20%
    04:00 +10°C° 0 mm 5 mps 683 mmHg 22%
    05:00 +10°C° 0 mm 5 mps 682 mmHg 23%
    06:00 +10°C° 0 mm 6 mps 683 mmHg 23%
    07:00 +10°C° 0 mm 6 mps 683 mmHg 23%
    08:00 +11°C° 0 mm 6 mps 684 mmHg 23%
    09:00 +15°C° 0 mm 7 mps 684 mmHg 20%
    10:00 +18°C° 0 mm 7 mps 685 mmHg 17%
    11:00 +22°C° 0 mm 8 mps 686 mmHg 14%
    12:00 +23°C° 0 mm 7 mps 685 mmHg 12%
    13:00 +26°C° 0 mm 6 mps 685 mmHg 10%
    14:00 +28°C° 0 mm 6 mps 685 mmHg 9%
    15:00 +28°C° 0 mm 6 mps 684 mmHg 9%
    16:00 +28°C° 0 mm 6 mps 684 mmHg 9%
    17:00 +27°C° 0 mm 6 mps 683 mmHg 9%
    18:00 +24°C° 0 mm 6 mps 683 mmHg 11%
    19:00 +21°C° 0 mm 6 mps 683 mmHg 13%
    20:00 +17°C° 0 mm 6 mps 683 mmHg 15%
    21:00 +16°C° 0 mm 6 mps 684 mmHg 16%
    22:00 +15°C° 0 mm 6 mps 684 mmHg 16%
    23:00 +14°C° 0 mm 6 mps 684 mmHg 17%

    2 February, Sunday

    Time Temperature Precipitation Wind Pressure Humidity
    00:00 +13°C° 0 mm 5 mps 683 mmHg 17%
    01:00 +12°C° 0 mm 5 mps 683 mmHg 18%
    02:00 +12°C° 0 mm 5 mps 683 mmHg 19%
    03:00 +10°C° 0 mm 5 mps 682 mmHg 20%
    04:00 +10°C° 0 mm 5 mps 682 mmHg 21%
    05:00 +9°C° 0 mm 5 mps 682 mmHg 22%
    06:00 +10°C° 0 mm 5 mps 683 mmHg 22%
    07:00 +10°C° 0 mm 5 mps 683 mmHg 22%
    08:00 +10°C° 0 mm 6 mps 684 mmHg 22%
    09:00 +14°C° 0 mm 6 mps 684 mmHg 18%
    10:00 +17°C° 0 mm 7 mps 685 mmHg 15%
    11:00 +22°C° 0 mm 7 mps 685 mmHg 12%
    12:00 +23°C° 0 mm 6 mps 685 mmHg 11%
    13:00 +26°C° 0 mm 6 mps 684 mmHg 10%
    14:00 +28°C° 0 mm 5 mps 684 mmHg 9%
    15:00 +28°C° 0 mm 5 mps 684 mmHg 10%
    16:00 +28°C° 0 mm 5 mps 683 mmHg 10%
    17:00 +28°C° 0 mm 5 mps 683 mmHg 10%
    18:00 +25°C° 0 mm 5 mps 683 mmHg 13%
    19:00 +21°C° 0 mm 5 mps 683 mmHg 15%
    20:00 +17°C° 0 mm 5 mps 683 mmHg 18%
    21:00 +17°C° 0 mm 5 mps 684 mmHg 20%
    22:00 +16°C° 0 mm 6 mps 684 mmHg 21%
    23:00 +15°C° 0 mm 6 mps 684 mmHg 23%
    Show more